Date String (YYYY-MM-DD hh:mm:ss) UTC,Instrument flags,Ambient pressure (hPa),Sample flow (lpm),Bypass flow (lpm),Sample temperature (°C),Ambient temperature (°C),ASC tube jacket temperature (°C),LED temperature (°C),Box temperature (°C),Sample RH (%),Span deviation,Mass concentration (μg/m³),Mass concentration (μg/m³),Mass concentration (μg/m³)
DateTimeUTC,F1_M11,P_M11,Q1_M11,Q2_M11,T1_M11,T2_M11,T3_M11,T4_M11,T5_M11,U1_M11,ZSPAN_M11,X2_M11,X0_M11,X1_M11
2022-12-20 06:00:00,,0829.8,4.96,0.00,21.4,20.0,00.0,30.3,23.0,05.2,0000.0,0001.74,0002.69,0001.49
2022-12-20 06:01:00,,0829.8,5.03,0.00,21.3,19.7,00.0,30.2,22.9,05.2,0000.0,0001.75,0002.75,0001.49
2022-12-20 06:02:00,,0829.8,4.95,0.00,21.3,19.5,00.0,30.2,22.8,05.3,0000.0,0001.77,0002.86,0001.49
2022-12-20 06:03:00,,0829.7,5.03,0.00,21.2,19.4,00.0,30.2,22.7,05.3,0000.0,0001.78,0002.68,0001.49
2022-12-20 06:04:00,,0829.7,5.01,0.00,21.2,19.3,00.0,30.2,22.7,05.3,0000.0,0001.76,0002.61,0001.48
2022-12-20 06:05:00,,0829.7,4.97,0.00,21.2,19.4,00.0,30.2,22.8,05.3,0000.0,0001.86,0002.78,0001.50
2022-12-20 06:06:00,,0829.6,5.03,0.00,21.2,19.5,00.0,30.2,22.8,05.3,0000.0,0001.93,0002.91,0001.52
2022-12-20 06:07:00,,0829.6,4.98,0.00,21.2,19.5,00.0,30.1,22.8,05.3,0000.0,0001.94,0003.00,0001.53
2022-12-20 06:08:00,,0829.7,5.00,0.00,21.2,20.2,00.0,30.1,22.9,05.2,0000.0,0001.97,0003.04,0001.54
2022-12-20 06:09:00,,0829.8,4.99,0.00,21.3,21.4,00.0,30.1,23.2,05.2,0000.0,0002.02,0003.12,0001.55
2022-12-20 06:10:00,,0829.8,5.04,0.00,21.4,21.8,00.0,30.1,23.4,05.2,0000.0,0002.06,0003.21,0001.56
2022-12-20 06:11:00,,0829.8,4.97,0.00,21.5,21.4,00.0,30.2,23.4,05.3,0000.0,0002.18,0003.60,0001.63
2022-12-20 06:12:00,,0829.9,4.98,0.00,21.5,20.9,00.0,30.2,23.3,05.6,0000.0,0002.57,0004.31,0001.95
2022-12-20 06:13:00,,0829.8,5.01,0.00,21.4,20.6,00.0,30.2,23.2,05.7,0000.0,0003.11,0005.25,0002.43
2022-12-20 06:14:00,,0829.8,5.03,0.00,21.4,20.4,00.0,30.2,23.2,05.9,0000.0,0003.49,0006.36,0002.89
2022-12-20 06:15:00,,0829.8,4.98,0.00,21.4,20.3,00.0,30.3,23.2,05.9,0000.0,0003.83,0007.37,0003.25
2022-12-20 06:16:00,,0829.8,5.03,0.00,21.4,20.3,00.0,30.3,23.2,05.7,0000.0,0004.11,0008.07,0003.50
2022-12-20 06:17:00,,0829.8,4.96,0.00,21.4,20.2,00.0,30.3,23.2,05.7,0000.0,0004.36,0009.28,0003.72
2022-12-20 06:18:00,,0829.7,5.05,0.00,21.4,20.2,00.0,30.3,23.2,05.8,0000.4,0004.71,0010.04,0003.99
2022-12-20 06:19:00,,0829.8,4.95,0.00,21.4,20.2,00.0,30.3,23.2,05.8,0001.1,0005.08,0011.56,0004.25
2022-12-20 06:20:00,,0829.7,5.04,0.00,21.5,20.2,00.0,30.3,23.2,05.6,0001.2,0005.43,0012.99,0004.50
2022-12-20 06:21:00,,0829.7,4.99,0.00,21.5,20.2,00.0,30.3,23.2,05.5,0001.7,0005.68,0013.92,0004.70
2022-12-20 06:22:00,,0829.6,5.01,0.00,21.5,20.2,00.0,30.3,23.2,05.4,0002.2,0005.86,0014.76,0004.82
2022-12-20 06:23:00,,0829.6,5.02,0.00,21.5,20.2,00.0,30.3,23.3,05.4,0002.2,0005.88,0015.52,0004.81
2022-12-20 06:24:00,,0829.7,4.96,0.00,21.5,20.2,00.0,30.3,23.2,05.4,0001.8,0005.73,0015.23,0004.71
2022-12-20 06:25:00,,0829.7,5.04,0.00,21.5,20.2,00.0,30.3,23.2,05.5,0001.9,0005.65,0015.04,0004.67
2022-12-20 06:26:00,,0829.7,5.00,0.00,21.5,20.1,00.0,30.3,23.2,05.7,0002.5,0005.68,0015.50,0004.67
2022-12-20 06:27:00,,0829.7,5.00,0.00,21.5,20.4,00.0,30.3,23.3,05.7,0002.7,0005.75,0015.56,0004.71
2022-12-20 06:28:00,,0829.7,5.03,0.00,21.6,21.4,00.0,30.3,23.5,05.6,0003.0,0005.81,0015.72,0004.74
2022-12-20 06:29:00,,0829.7,4.99,0.00,21.7,22.1,00.0,30.3,23.8,05.6,0003.2,0005.88,0016.57,0004.77
2022-12-20 06:30:00,,0829.7,4.98,0.00,21.8,21.9,00.0,30.4,23.8,05.5,0003.1,0005.88,0016.13,0004.76
2022-12-20 06:31:00,,0829.8,5.05,0.00,21.8,21.5,00.0,30.4,23.7,05.3,0002.0,0005.90,0015.28,0004.77
2022-12-20 06:32:00,,0829.9,4.97,0.00,21.8,21.3,00.0,30.5,23.7,05.2,0002.7,0005.98,0014.95,0004.83
2022-12-20 06:33:00,,0829.8,5.05,0.00,21.8,21.0,00.0,30.5,23.7,05.1,0002.0,0006.06,0014.79,0004.94
2022-12-20 06:34:00,,0829.6,4.97,0.00,21.8,20.9,00.0,30.5,23.6,05.1,0002.0,0006.16,0014.50,0005.06
2022-12-20 06:35:00,,0829.6,5.03,0.00,21.8,20.8,00.0,30.5,23.6,05.1,0002.0,0006.30,0014.89,0005.16
2022-12-20 06:36:00,,0829.6,4.96,0.00,21.8,20.7,00.0,30.5,23.6,05.1,0002.2,0006.35,0014.99,0005.21
2022-12-20 06:37:00,,0829.5,5.04,0.00,21.8,20.6,00.0,30.5,23.6,05.0,0001.8,0006.28,0014.53,0005.18
2022-12-20 06:38:00,,0829.6,4.95,0.00,21.8,20.6,00.0,30.6,23.6,05.0,0001.6,0006.12,0014.11,0005.10
2022-12-20 06:39:00,,0829.5,5.03,0.00,21.8,20.6,00.0,30.6,23.6,05.0,0001.5,0006.01,0013.48,0005.01
2022-12-20 06:40:00,,0829.6,5.02,0.00,21.8,20.5,00.0,30.6,23.6,05.0,0001.5,0005.84,0012.32,0004.90
2022-12-20 06:41:00,,0829.6,4.97,0.00,21.8,20.5,00.0,30.6,23.6,05.0,0001.6,0005.64,0011.47,0004.81
2022-12-20 06:42:00,,0829.5,5.03,0.00,21.8,20.5,00.0,30.6,23.6,05.1,0002.0,0005.47,0011.16,0004.70
2022-12-20 06:43:00,,0829.5,4.97,0.00,21.8,20.4,00.0,30.6,23.6,05.1,0002.0,0005.33,0010.81,0004.60
2022-12-20 06:44:00,,0829.5,5.00,0.00,21.8,20.3,00.0,30.6,23.5,05.1,0002.7,0005.20,0010.35,0004.49
2022-12-20 06:45:00,,0829.6,5.02,0.00,21.7,20.2,00.0,30.6,23.5,05.1,0002.7,0005.08,0009.73,0004.38
2022-12-20 06:46:00,,0829.5,4.99,0.00,21.7,20.2,00.0,30.6,23.5,05.2,0001.2,0004.93,0009.54,0004.26
2022-12-20 06:47:00,,0829.5,5.00,0.00,21.7,20.2,00.0,30.6,23.5,05.3,0000.0,0004.74,0009.28,0004.08
2022-12-20 06:48:00,,0829.5,5.02,0.00,21.7,20.2,00.0,30.6,23.4,05.3,0000.0,0004.53,0008.91,0003.90
2022-12-20 06:49:00,,0829.5,4.99,0.00,21.7,20.0,00.0,30.6,23.4,05.3,0000.0,0004.30,0008.52,0003.72
2022-12-20 06:50:00,,0829.5,4.97,0.00,21.6,19.9,00.0,30.5,23.3,05.3,0000.0,0004.10,0007.80,0003.57
2022-12-20 06:51:00,,0829.5,5.04,0.00,21.7,20.7,00.0,30.5,23.4,05.3,0000.0,0003.91,0007.41,0003.45
2022-12-20 06:52:00,,0829.5,4.97,0.00,21.8,21.7,00.0,30.5,23.7,05.4,0000.0,0003.77,0007.13,0003.31
2022-12-20 06:53:00,,0829.5,5.03,0.00,21.9,21.8,00.0,30.5,23.8,05.4,0000.0,0003.62,0006.71,0003.19
2022-12-20 06:54:00,,0829.5,4.96,0.00,21.9,21.4,00.0,30.6,23.8,05.3,0000.0,0003.50,0006.35,0003.10
2022-12-20 06:55:00,,0829.5,5.05,0.00,21.8,20.9,00.0,30.6,23.6,05.4,0000.0,0003.41,0006.54,0002.94
2022-12-20 06:56:00,,0829.5,4.96,0.00,21.8,20.5,00.0,30.6,23.4,05.5,0000.0,0003.24,0005.98,0002.70
2022-12-20 06:57:00,,0829.5,5.02,0.00,21.7,20.1,00.0,30.6,23.3,05.5,0000.0,0003.06,0005.35,0002.45
2022-12-20 06:58:00,,0829.4,5.03,0.00,21.7,19.9,00.0,30.6,23.2,05.5,0000.0,0002.88,0004.67,0002.32
2022-12-20 06:59:00,,0829.5,4.97,0.00,21.6,19.7,00.0,30.6,23.2,05.6,0000.0,0002.76,0004.43,0002.24
